{"data":{"norad_id":67734,"epoch":"2026-05-25T03:25:51.557376Z","epoch_age_seconds":52751,"freshness":"FRESH","line1":"1 67734U 26026P   26145.14295784  .00020136  00000+0  62441-3 0  9992","line2":"2 67734  97.2860 198.6827 0000370 125.3338 234.7940 15.33443570 15849","mean_motion":15.3344357,"eccentricity":3.7e-5,"inclination_deg":97.286,"raan_deg":198.6827,"arg_perigee_deg":125.3338,"mean_anomaly_deg":234.794,"bstar":0.00062441,"rev_number":1584,"period_min":93.906292228282,"perigee_km":465.29421283147,"apogee_km":465.80064547923,"semimajor_km":6843.6844291553,"source":"CELESTRAK","updated_at":"2026-05-25T13:38:21.689196Z"}}